AB4CZ-1 Weather Reports


Display with metric or nautical units.
time (UTC)temp
F
wind
direction
speed
MPH
gust
MPH
rain 1hr
in
rain 24hr
in
rain mn
in
humidity
%
barometer
mb
20260505195133 80 0 0.0 8.0 0.00 0.00 0.00 40 1014.8
20260505194636 81 0 0.0 0.0 0.00 0.00 0.00 37 1014.9
20260505194132 81 0 0.0 0.0 0.00 0.00 0.00 40 1014.9
20260505193132 80 0 0.0 0.0 0.00 0.00 0.00 39 1014.9
20260505192633 80 0 0.0 7.0 0.00 0.00 0.00 41 1014.8
20260505191632 80 124 1.0 8.0 0.00 0.00 0.00 42 1014.9
20260505190633 80 0 0.0 5.0 0.00 0.00 0.00 40 1015.0
20260505190132 80 0 0.0 12.0 0.00 0.00 0.00 41 1015.0
20260505184726 81 0 0.0 7.0 0.00 0.00 0.00 40 1015.2
20260505184632 81 0 0.0 7.0 0.00 0.00 0.00 40 1015.2
20260505184136 80 0 0.0 0.0 0.00 0.00 0.00 39 1015.3
20260505183133 80 0 0.0 1.0 0.00 0.00 0.00 39 1015.5
20260505182632 80 0 0.0 1.0 0.00 0.00 0.00 38 1015.5
20260505182136 81 0 0.0 7.0 0.00 0.00 0.00 39 1015.5
20260505181632 81 0 0.0 7.0 0.00 0.00 0.00 41 1015.8
20260505180632 81 0 0.0 0.0 0.00 0.00 0.00 41 1015.8
20260505180132 81 0 0.0 0.0 0.00 0.00 0.00 41 1015.9
20260505175635 80 0 0.0 0.0 0.00 0.00 0.00 40 1016.0
20260505175147 80 0 0.0 0.0 0.00 0.00 0.00 40 1015.9
20260505174234 80 0 0.0 4.0 0.00 0.00 0.00 40 1016.2
20260505174132 80 0 0.0 4.0 0.00 0.00 0.00 40 1016.2
20260505173632 80 0 0.0 7.0 0.00 0.00 0.00 39 1016.2
20260505172633 79 104 2.0 10.0 0.00 0.00 0.00 42 1016.2
20260505171648 79 0 0.0 6.0 0.00 0.00 0.00 42 1016.3
20260505170134 79 0 0.0 3.0 0.00 0.00 0.00 41 1016.3
20260505165632 79 0 0.0 0.0 0.00 0.00 0.00 41 1016.2
20260505164632 79 0 0.0 8.0 0.00 0.00 0.00 42 1016.2
20260505164134 79 90 2.0 8.0 0.00 0.00 0.00 41 1016.1
20260505162633 79 0 0.0 7.0 0.00 0.00 0.00 40 1016.4
20260505161633 79 0 0.0 0.0 0.00 0.00 0.00 44 1016.4
20260505153132 77 0 0.0 10.0 0.00 0.00 0.00 46 1016.7
20260505152133 78 0 0.0 0.0 0.00 0.00 0.00 44 1016.7
20260505151632 77 0 0.0 0.0 0.00 0.00 0.00 46 1016.6
20260505151353 77 0 0.0 0.0 0.00 0.00 0.00 49 1016.9
20260505151137 77 0 0.0 0.0 0.00 0.00 0.00 49 1016.9
20260505150632 77 0 0.0 0.0 0.00 0.00 0.00 47 1017.0
20260505150141 77 0 0.0 0.0 0.00 0.00 0.00 49 1017.1
20260505140633 72 0 0.0 0.0 0.00 0.00 0.00 60 1017.0
20260505140143 72 0 0.0 0.0 0.00 0.00 0.00 59 1016.9
20260505124725 59 0 0.0 0.0 0.00 0.00 0.00 85 1016.4
20260505124632 59 0 0.0 0.0 0.00 0.00 0.00 85 1016.4
20260505123134 56 0 0.0 0.0 0.00 0.00 0.00 90 1016.3
20260505122641 55 0 0.0 0.0 0.00 0.00 0.00 93 1016.4
20260505121634 53 0 0.0 0.0 0.00 0.00 0.00 95 1016.3
20260505115635 51 0 0.0 0.0 0.00 0.00 0.00 96 1016.4
20260505115132 51 0 0.0 0.0 0.00 0.00 0.00 96 1016.3
20260505114632 50 0 0.0 0.0 0.00 0.00 0.00 96 1016.1
20260505114135 50 0 0.0 0.0 0.00 0.00 0.00 96 1016.1
20260505113139 49 0 0.0 0.0 0.00 0.00 0.00 96 1015.9
20260505112645 49 0 0.0 0.0 0.00 0.00 0.00 95 1015.8
20260505111634 49 0 0.0 0.0 0.00 0.00 0.00 95 1015.6
20260505111132 49 0 0.0 0.0 0.00 0.00 0.00 95 1015.8
20260505110641 49 0 0.0 0.0 0.00 0.00 0.00 95 1015.5
20260505110132 49 0 0.0 0.0 0.00 0.00 0.00 95 1015.4
20260505102140 49 0 0.0 0.0 0.00 0.00 0.00 95 1015.5
20260505101632 49 0 0.0 0.0 0.00 0.00 0.00 94 1015.4
20260505101137 49 0 0.0 0.0 0.00 0.00 0.00 94 1015.6
20260505100132 49 0 0.0 0.0 0.00 0.00 0.00 94 1015.8
20260505095132 49 0 0.0 0.0 0.00 0.00 0.00 94 1015.5
20260505094132 49 0 0.0 0.0 0.00 0.00 0.00 94 1015.5
20260505092632 50 0 0.0 0.0 0.00 0.00 0.00 93 1015.5
20260505092416 50 0 0.0 0.0 0.00 0.00 0.00 93 1015.4
20260505092132 50 0 0.0 0.0 0.00 0.00 0.00 93 1015.4
20260505091633 50 0 0.0 0.0 0.00 0.00 0.00 93 1015.5
20260505090633 50 0 0.0 0.0 0.00 0.00 0.00 93 1015.8
20260505090132 50 0 0.0 0.0 0.00 0.00 0.00 93 1015.8
20260505085634 50 0 0.0 0.0 0.00 0.00 0.00 92 1015.8
20260505085132 50 0 0.0 0.0 0.00 0.00 0.00 92 1015.8
20260505084633 50 0 0.0 0.0 0.00 0.00 0.00 92 1015.9
20260505083632 50 0 0.0 0.0 0.00 0.00 0.00 92 1015.8
20260505083145 51 0 0.0 0.0 0.00 0.00 0.00 92 1015.8
20260505082634 51 0 0.0 0.0 0.00 0.00 0.00 92 1015.8
20260505082151 51 0 0.0 0.0 0.00 0.00 0.00 92 1015.9
20260505081633 51 0 0.0 0.0 0.00 0.00 0.00 92 1016.0
20260505080632 51 0 0.0 0.0 0.00 0.00 0.00 91 1015.8
20260505080221 51 0 0.0 0.0 0.00 0.00 0.00 91 1015.8
20260505075632 51 0 0.0 0.0 0.00 0.00 0.00 91 1015.7
20260505074726 51 0 0.0 0.0 0.00 0.00 0.00 90 1015.8
20260505074645 51 0 0.0 0.0 0.00 0.00 0.00 90 1015.8
20260505074144 51 0 0.0 0.0 0.00 0.00 0.00 90 1015.7
20260505073633 51 0 0.0 0.0 0.00 0.00 0.00 90 1015.7
20260505073132 51 0 0.0 0.0 0.00 0.00 0.00 90 1015.7
20260505072132 52 0 0.0 0.0 0.00 0.00 0.00 89 1015.8
20260505071632 52 0 0.0 0.0 0.00 0.00 0.00 89 1015.8
20260505071132 52 0 0.0 0.0 0.00 0.00 0.00 89 1015.8
20260505070935 52 0 0.0 0.0 0.00 0.00 0.00 88 1015.6
20260505070651 52 0 0.0 0.0 0.00 0.00 0.00 88 1015.6
20260505070141 52 0 0.0 0.0 0.00 0.00 0.00 89 1015.7
20260505065632 52 0 0.0 0.0 0.00 0.00 0.00 88 1015.8
20260505065143 52 0 0.0 0.0 0.00 0.00 0.00 88 1015.8
20260505062634 53 0 0.0 0.0 0.00 0.00 0.00 88 1015.9
20260505062141 53 0 0.0 0.0 0.00 0.00 0.00 87 1015.9
20260505061633 53 0 0.0 0.0 0.00 0.00 0.00 86 1016.0
20260505061145 53 0 0.0 0.0 0.00 0.00 0.00 86 1015.9
20260505060633 53 0 0.0 0.0 0.00 0.00 0.00 86 1015.9
20260505060142 53 0 0.0 0.0 0.00 0.00 0.00 86 1015.9
20260505055147 53 0 0.0 0.0 0.00 0.00 0.00 85 1016.0
20260505054645 54 0 0.0 0.0 0.00 0.00 0.00 85 1016.0
20260505053145 54 0 0.0 0.0 0.00 0.00 0.00 84 1016.0
20260505052132 54 0 0.0 0.0 0.00 0.00 0.00 83 1016.0
20260505051638 54 0 0.0 0.0 0.00 0.00 0.00 83 1016.0
20260505051135 54 0 0.0 0.0 0.00 0.00 0.00 82 1016.0
20260505050728 55 0 0.0 0.0 0.00 0.00 0.00 82 1015.9
20260505050637 55 0 0.0 0.0 0.00 0.00 0.00 82 1015.9
20260505050141 55 0 0.0 0.0 0.00 0.00 0.00 82 1015.8
20260505041632 56 0 0.0 0.0 0.00 0.00 0.00 79 1015.9
20260505041132 57 0 0.0 0.0 0.00 0.00 0.00 79 1015.9
20260505034632 58 0 0.0 0.0 0.00 0.00 0.00 76 1016.1
20260505033632 58 0 0.0 0.0 0.00 0.00 0.00 74 1016.0
20260505033133 58 0 0.0 0.0 0.00 0.00 0.00 74 1016.1
20260505032811 59 0 0.0 0.0 0.00 0.00 0.00 74 1016.1
20260505032636 59 0 0.0 0.0 0.00 0.00 0.00 74 1016.1
20260505032132 59 0 0.0 0.0 0.00 0.00 0.00 74 1016.1
20260505031640 59 0 0.0 0.0 0.00 0.00 0.00 74 1016.1
20260505031446 59 0 0.0 0.0 0.00 0.00 0.00 72 1016.1
20260505031132 59 0 0.0 0.0 0.00 0.00 0.00 72 1016.1
20260505030138 60 0 0.0 0.0 0.00 0.00 0.00 72 1016.1
20260505025132 60 0 0.0 0.0 0.00 0.00 0.00 68 1016.1
20260505024632 60 0 0.0 0.0 0.00 0.00 0.00 67 1016.1
20260505024133 61 0 0.0 0.0 0.00 0.00 0.00 66 1016.1
20260505023632 61 0 0.0 0.0 0.00 0.00 0.00 67 1016.0
20260505023132 61 0 0.0 0.0 0.00 0.00 0.00 67 1016.0
20260505022132 61 0 0.0 0.0 0.00 0.00 0.00 65 1015.9
20260505021145 62 0 0.0 0.0 0.00 0.00 0.00 63 1015.9
20260505020242 63 0 0.0 0.0 0.00 0.00 0.00 62 1015.9
20260505020138 63 0 0.0 0.0 0.00 0.00 0.00 62 1015.9
20260505015632 63 0 0.0 0.0 0.00 0.00 0.00 61 1015.8
20260505015138 63 0 0.0 0.0 0.00 0.00 0.00 62 1015.8
20260505014632 63 0 0.0 0.0 0.00 0.00 0.00 61 1015.8
20260505014150 63 0 0.0 0.0 0.00 0.00 0.00 59 1015.8
20260505013632 64 0 0.0 0.0 0.00 0.00 0.00 58 1015.6
20260505013132 64 0 0.0 0.0 0.00 0.00 0.00 58 1015.5
20260505012633 64 0 0.0 0.0 0.00 0.00 0.00 58 1015.5
20260505012132 65 0 0.0 0.0 0.00 0.00 0.00 57 1015.5
20260505011633 65 0 0.0 0.0 0.00 0.00 0.00 56 1015.4
20260505010632 66 0 0.0 0.0 0.00 0.00 0.00 53 1015.5
20260505010132 66 0 0.0 0.0 0.00 0.00 0.00 52 1015.3
20260505005632 67 0 0.0 0.0 0.00 0.00 0.00 52 1015.3
20260505005132 67 0 0.0 0.0 0.00 0.00 0.00 52 1015.3
20260505004132 68 0 0.0 0.0 0.00 0.00 0.00 49 1015.1
20260505003632 69 0 0.0 0.0 0.00 0.00 0.00 48 1015.1
20260505003133 70 0 0.0 0.0 0.00 0.00 0.00 47 1015.0
20260505002632 70 0 0.0 0.0 0.00 0.00 0.00 46 1015.0
20260505002132 71 0 0.0 0.0 0.00 0.00 0.00 46 1015.0
20260505001632 71 0 0.0 0.0 0.00 0.00 0.00 44 1015.0
20260505001310 72 0 0.0 0.0 0.00 0.00 0.00 43 1014.8
20260505001132 72 0 0.0 0.0 0.00 0.00 0.00 43 1014.8
20260505000632 72 0 0.0 0.0 0.00 0.00 0.00 43 1014.8
20260505000132 73 0 0.0 0.0 0.00 0.00 0.00 43 1014.8
20260504234633 73 0 0.0 0.0 0.00 0.00 0.00 42 1014.8
20260504233632 74 0 0.0 0.0 0.00 0.00 0.00 41 1014.8
20260504232632 75 0 0.0 0.0 0.00 0.00 0.00 39 1014.8
20260504232132 75 0 0.0 0.0 0.00 0.00 0.00 40 1014.8
20260504231633 75 0 0.0 0.0 0.00 0.00 0.00 40 1014.9
20260504231132 76 0 0.0 0.0 0.00 0.00 0.00 40 1014.8
20260504230632 76 0 0.0 0.0 0.00 0.00 0.00 38 1014.9
20260504225132 76 0 0.0 0.0 0.00 0.00 0.00 39 1014.8
20260504224632 76 0 0.0 0.0 0.00 0.00 0.00 39 1014.8
20260504224138 76 0 0.0 0.0 0.00 0.00 0.00 37 1014.9
20260504223633 76 0 0.0 0.0 0.00 0.00 0.00 38 1014.9
20260504223132 76 0 0.0 0.0 0.00 0.00 0.00 38 1014.9
20260504222632 77 0 0.0 0.0 0.00 0.00 0.00 36 1014.8
20260504222132 77 0 0.0 1.0 0.00 0.00 0.00 36 1014.9
20260504222051 43 0 0.0 0.0 0.00 0.00 0.00 95 1018.1
20260504221132 78 0 0.0 0.0 0.00 0.00 0.00 35 1014.9
20260504220632 78 0 0.0 0.0 0.00 0.00 0.00 35 1014.8
20260504220132 78 0 0.0 0.0 0.00 0.00 0.00 34 1014.8
20260504215632 78 0 0.0 0.0 0.00 0.00 0.00 37 1014.8
20260504215400 78 0 0.0 4.0 0.00 0.00 0.00 36 1014.8
20260504215224 78 0 0.0 4.0 0.00 0.00 0.00 36 1014.8
20260504215147 78 0 0.0 4.0 0.00 0.00 0.00 36 1014.8
20260504214632 78 0 0.0 4.0 0.00 0.00 0.00 35 1014.8
20260504212132 78 0 0.0 5.0 0.00 0.00 0.00 37 1014.6
20260504211813 78 0 0.0 5.0 0.00 0.00 0.00 36 1014.6
20260504211632 78 0 0.0 5.0 0.00 0.00 0.00 36 1014.6
20260504211138 79 0 0.0 4.0 0.00 0.00 0.00 38 1014.7
20260504210149 79 0 0.0 0.0 0.00 0.00 0.00 34 1014.9
20260504204632 79 0 0.0 0.0 0.00 0.00 0.00 37 1014.9
20260504204132 79 0 0.0 0.0 0.00 0.00 0.00 35 1014.9
20260504203632 79 0 0.0 0.0 0.00 0.00 0.00 35 1015.0
20260504203148 79 0 0.0 0.0 0.00 0.00 0.00 39 1014.9
20260504201632 79 0 0.0 0.0 0.00 0.00 0.00 33 1015.2
20260504201145 79 0 0.0 0.0 0.00 0.00 0.00 34 1015.2
20260504200139 79 0 0.0 0.0 0.00 0.00 0.00 35 1015.4